VABB

Chhatrapati Shivaji International Airport

Airport
ICAO code
VABB
IATA Code
BOM
Summary
ICAO Region
APAC
ICAO Territory
Location

Mumbai, Maharashtra

Serving
Mumbai
Elevation
37 ft
Coordinates
19° 5' 26" N , 72° 52' 2" E
KCC
Metar
Observation
VABB 271500Z 36004KT 2500 FU FEW100 29/19 Q1008 NOSIG
Station
Bombay / Santacruz
Date/Time
2022-11-27 15:00:00
Wind direction
360°
Wind speed
04 kts
Lowest cloud amount
few clouds
Temperature
29°C
Dew point
19°C
Humidity
54%
QNH
1008 hPa
Weather condition
n/a

Description

International airport serving the city of Mumbai (formerly Bombay), India.

Climatology

Tropical Savanna climate (Köppen climate classification Aw) - monthly mean temperatures above 18°C, and a pronounced dry season. A Tropical Savanna climate has more pronounced dry seasons than a Tropical Monsoon climate.

Runways

Designator Length Width Surface Rops
14/32 2925 46 ASP Yes/Yes
9/27 3445 45 ASP Yes/Yes

SKYbrary Partners:

Safety knowledge contributed by: